www.pogodaiklimat.ru
ПОГОДА на Базе ВВС Эдвардс
Время
и дата
02:51 30.01
02:55 30.01
03:07 30.01
03:13 30.01
03:16 30.01
03:18 30.01
03:38 30.01
03:55 30.01
04:36 30.01
04:48 30.01
04:55 30.01
05:22 30.01
05:48 30.01
05:55 30.01
06:52 30.01
06:55 30.01
07:55 30.01
08:55 30.01
09:24 30.01
09:26 30.01
09:28 30.01
09:47 30.01
09:53 30.01
09:55 30.01
10:05 30.01
10:20 30.01
10:47 30.01
10:55 30.01
11:55 30.01
12:05 30.01
12:55 30.01
13:55 30.01
14:25 30.01
14:55 30.01
15:10 30.01
15:55 30.01
16:55 30.01
17:55 30.01
18:55 30.01
19:55 30.01
20:55 30.01
21:55 30.01
22:55 30.01
23:55 30.01
00:55 31.01
01:55 31.01
02:55 31.01
03:55 31.01
Ветер
(напр.,м/с)
Видим. Явления Облачность Т
(С)
Тd
(С)
f
(%)
Тe
(С)
Тes
(С)
Комфортность P
(гПа)
Po
(гПа)
Тmin
(С)
Tmax
(С)
R
(мм)
R24
(мм)
S
(см)
штиль 0 16 км слабый дождь 5/5 1050 m
[Ns]
+3.0 +3.0 100 +2 +2 1012.1 930.3
штиль 0 16 км слабый дождь 2/2 1050 m
[Ns]
+2.7 +2.6 99 +1 +1 1012.2 930.3
штиль 0 16 км 2/2 1050 м +3.0 +3.0 100 +2 +2 1012.2 930.3
штиль 0 16 км слабая морось 2/2 1650 m
[St]
+3.0 +3.0 100 +2 +2 1012.1 930.3
штиль 0 16 км 2/2 1650 м +3.0 +3.0 100 +2 +2 1012.4 930.6
штиль 0 16 км слабая морось 2/2 1650 m
[St]
+3.0 +3.0 100 +2 +2 1012.4 930.6
С 2 16 км 2/2 1650 м +3.0 +3.0 100 0 0 1012.4 930.6
С 2 16 км ясно +2.9 +2.8 99 0 0 1012.6 930.6 +1.8 +4.4
С 2 16 км слабый дождь 2/2 1800 m
[Ns]
+3.0 +3.0 100 0 0 1012.6 930.6
С 2 16 км 8/8 1800 м +3.0 +3.0 100 0 0 1012.6 930.6
С 3 16 км 8/8 1800 м +2.9 +2.8 99 -1 -1 1012.9 930.9
С 3 16 км слабые неопределенные осадки 2/2 1800 m
[Cb]
+3.0 +3.0 100 -1 -1 1012.9 930.9
СЗ 2 16 км 5/5 690 м +3.0 +3.0 100 0 0 1013.8 931.5
штиль 0 48 км 10/10 690 м +3.3 +3.2 99 +2 +2 1013.8 931.5
СЗ 3 24 км слабый дождь 10/10 750 m
[Ns]
+4.0 +3.0 93 0 0 931.8
СЗ 3 24 км слабый дождь 10/10 750 m
[Ns]
+3.9 +3.0 94 0 0 1014.1 931.8
С 5 32 км 8/8 900 м +4.6 +1.3 79 0 0 1014.5 932.1
С 3 32 км 10/10 1080 м +4.9 +2.3 83 +1 +1 1015.8 933.4
СВ 3 32 км слабый дождь 10/10 1050 m
[Ns]
+5.0 +2.0 81 +2 +2 933.4
СВ 3 32 км 10/10 1050 м +5.0 +2.0 81 +2 +2 933.4
СВ 2 32 км слабый дождь 10/10 1050 m
[Ns]
+5.0 +2.0 81 +2 +2 933.7
В 2 32 км 8/8 1020 м +6.0 +3.0 81 +4 +4 934.0
В 3 32 км слабый дождь 10/10 750 m
[Ns]
+6.0 +2.0 75 +3 +3 934.0
В 3 32 км слабый дождь 10/10 750 m
[Ns]
+5.8 +2.4 79 +3 +3 1016.5 934.0 +2.8 +5.8
СВ 2 32 км 10/10 750 м +6.0 +2.0 75 +4 +4 934.0
СВ 3 32 км слабый дождь 10/10 750 m
[Ns]
+6.0 +3.0 81 +3 +3 934.3
СВ 4 32 км 10/10 750 м +7.0 +2.0 70 +4 +4 934.0
СВ 7 32 км 10/10 750 м +7.6 +1.9 67 +3 +3 1016.4 934.3
СВ 8 32 км 8/8 900 м +9.3 +1.0 56 +5 +6 1015.5 933.4
СВ 9 32 км 8/8 900 м +9.0 +1.0 57 +5 +5 933.4
СВ 7 32 км 8/8 900 м +10.0 -0.5 48 +7 +7 1014.6 932.5
СВ 7
{9}
32 км 5/5 1800 м +10.9 -1.2 43 +8 +9 1014.1 932.1
СВ 6 32 км 8/5 1650 m
[Ac]
+11.0 -1.0 43 +8 +9 1014.1 932.1
СВ 7 32 км 8/2 1800 m
[Ac]
+11.0 -1.8 41 +8 +9 1014.1 932.1
СВ 6 32 км 2/2 1800 м +11.0 -2.0 40 +8 +9 1014.1 932.1
СВ 8 48 км 2/0 2100 m
[Ac]
+10.8 -1.9 41 +8 +8 1014.1 932.1 +5.9 +11.5
СВ 8 48 км 5/0 3300 m
[Ac]
+8.9 -1.8 47 +5 +5 1015.0 932.8
В 5 48 км ясно +6.8 -2.1 53 +3 +3 1015.5 933.1
СВ 3 48 км ясно +5.1 -3.2 55 +2 +2 1016.4 933.7
СВ 3 48 км ясно +3.6 -3.2 61 0 0 1017.4 934.6
СВ 5 48 км ясно +3.4 -3.9 59 -1 -1 1018.4 935.6
СВ 3 48 км ясно +1.5 -2.8 73 -3 -3 1018.8 935.9 +1.4 +10.7
С 5 16 км ясно +1.5 -4.4 65 -4 -4 1018.9 936.2
С 5 16 км ясно +2.2 -5.9 55 -3 -3 1018.8 936.2
СВ 4 16 км ясно +0.8 -5.7 62 -4 -4 1019.1 936.5
СВ 4 16 км ясно +0.2 -6.4 61 -5 -5 1019.1 936.5
штиль 0 16 км ясно -1.1 -5.9 70 -2 -2 1019.6 936.8
СЗ 3 16 км ясно -1.9 -6.3 72 -7 -7 1020.1 937.1 -2.1 +2.2
Местоположение метеостанции Edwards Air Force Base: широта 34.9167 долгота -117.9000 высота над уровнем моря 702 м.
В архиве по умолчанию представлена погода на Базе ВВС Эдвардс за последние 1-2 суток. Обновление информации о фактической погоде в базе происходит ежечасно! Архивные данные за месяц целиком и за предыдущие месяцы Вы можете получить, выбрав интересующий диапазон дат из раскрывающегося списка и нажав кнопку "Ввод!".
Внимание! Архив погоды МЕТАР в базе сайта по станциям, не включенным в климатический монитор, хранится не более 60 дней. Нет смысла пытаться выбрать более раннюю дату.
*Определитесь, кто Вы:
Внимание! Время в таблицах - местное (без учета летнего времени). Для получения всемирного времени необходимо вычесть поправку, которая равна -8 ч.
Смотрите также архив погоды в соседних городах и на ближайших метеорологических станциях:
Партнеры нашего сайта:      
Пояснения к столбцам:
  • Ветер - указаны скорость ветра в м/с - средняя за 10 мин, порывы в срок и между сроками (в фигурных скобках) и направление, откуда дует ветер: С - северный,
  • СВ - северо-восточный, В - восточный, ЮВ - юго-восточный, Ю - южный, ЮЗ - юго-западный, З - западный, СЗ - северо-западный.
  • Видимость - горизонтальная дальность видимости в метрах или километрах. При видимости от 1 до 10 км при отсутствии осадков обычно наблюдается дымка, при ухудшении видимости до 1 км и менее - туман. В сухую погоду видимость может ухудшаться дымом, пылью или мглою.
  • Явления - указаны атмосферные явления, наблюдавшиеся в срок или в последний час перед сроком; фигурными скобками обозначены явления, наблюдавшиеся между сроками (за 1-3 часа до срока); квадратными скобками обозначены град или гололедные отложения с указанием их диаметра в мм.
  • Облачность - указаны через наклонную черту общая и нижняя облачность в баллах и высота нижней границы облаков в метрах; квадратными скобками обозначены формы облаков: Ci - перистые, Cs - перисто-слоистые, Cc - перисто-кучевые, Ac - высококучевые, As - высокослоистые, Sc - слоисто-кучевые, Ns - слоисто-дождевые, Cu - кучевые, Cb - кучево-дождевые. Подробнее классификацию облаков см. в Атласе облаков (PDF).
  • T - Температура воздуха - температура, измеренная на высоте 2 м над землей.
  • Td - Температура точки росы - температура, при понижении до которой содержащийся в воздухе водяной пар достигнет насыщения.
  • f - Относительная влажность воздуха - влажноcть воздуха, измеренная на высоте 2 м над землей.
  • Te - Эффективная температура - температура, которую ощущает одетый по сезону человек в тени. Характеристика душности погоды. При расчете учитывается влияние влажности воздуха и скорости ветра на теплоощущения человека.
  • Tes - Эффективная температура на солнце - температура, которую ощущает человек, с поправкой на солнечный нагрев. Характеристика знойности погоды. Зависит от высоты солнца над горизонтом, облачности и скорости ветра. Ночью, в пасмурную погоду, а также при ветре 12 м/с и более поправка равна нулю.
  • P - Атмосферное давление - приведенное к уровню моря атмосферное давление.
  • Po - Атмосферное давление - измеренное на уровне метеостанции атмосферное давление.
  • Tmin - Минимальная температура - минимум температуры воздуха на высоте 2 м над землей.
  • Tmax - Максимальная температура - максимум температуры воздуха на высоте 2 м над землей.
  • R - Количество осадков - Количество выпавших осадков за период времени, мм. При наведении курсора мыши на число - период времени, за который выпало указанное количество осадков.
  • R24 - Количество осадков - Количество выпавших осадков за 24 часа, мм.
  • S - Снежный покров - Высота снежного покрова, см. При наведении курсора мыши на число - состояние снежного покрова и степень покрытия местности в баллах.